TIME,DELAY(SENSOR),PRES,OXYGEN,RAWTEMP,T(OPTODE),TCPHASE,FLUOR,BETA(BETA700),BETA(BETA412),BETA(BETA440),CDOM,C(CSC),ED(ED412.20),ED(ED444.00),ED(ED489.60),ED(ED554.30),LU(LU412.10),LU(LU443.90),LU(LU489.70),LU(LU554.70),COMP,TILTX,TILTY,CHECK
1369456332,5811,859.1599731445312000,32.2558708190918000,562.2305908203125000,4.4167442321777340,56.7443695068359400,55,98,99,78,82,15639,0,0,0,0,2147120512,2147768438,2147570121,2147566610,3040,2,13,22532
1369459928,5809,926.2899780273438000,36.8488502502441400,567.8519897460938000,4.2422919273376465,56.0705413818359400,54,98,100,76,81,15638,0,0,0,0,2147124132,2147775003,2147568566,2147570038,568,2,13,36599
1369463528,5811,943.0900268554688000,34.6953811645507800,568.2429809570312000,4.2301478385925290,56.4123306274414060,54,98,99,78,81,15636,0,0,0,0,2147123904,2147773851,2147568905,2147569856,45,2,13,35493
1369467128,5809,973.5200195312500000,35.9971504211425800,570.4368286132812000,4.1619868278503420,56.2283096313476560,55,98,100,76,82,15633,0,0,0,0,2147121398,2147769892,2147571300,2147567762,177,2,13,32696
1369470728,5810,981.7399902343750000,33.6213188171386700,570.6276245117188000,4.1560568809509280,56.6082496643066400,54,98,100,78,82,15626,0,0,0,0,2147122861,2147775003,2147569718,2147563940,34,2,13,55701
1369474328,5812,986.1799926757812000,36.6408195495605500,570.1240234375000000,4.1717090606689450,56.1290512084960940,54,97,99,77,82,15630,0,0,0,0,2147123638,2147772790,2147571638,2147567149,23,2,13,47635
1369477928,5813,985.6799926757812000,36.1749687194824200,570.3491821289062000,4.1647071838378910,56.1988906860351560,55,97,100,77,81,15627,0,0,0,0,2147124818,2147777152,2147570048,2147565979,49,2,13,11848
1369481528,5811,991.7700195312500000,35.0830307006835940,569.8201293945312000,4.1811499595642090,56.3642501831054700,55,98,99,77,81,15625,0,0,0,0,2147122011,2147774006,2147569938,2147567844,132,2,13,29450
1369485128,5810,993.2600097656250000,36.8208312988281250,569.7498168945312000,4.1833357810974120,56.0966300964355500,55,99,98,78,81,15622,0,0,0,0,2147122276,2147769115,2147571355,2147571126,584,2,13,41279
1369488728,5812,988.0100097656250000,36.1024513244628900,570.3198852539062000,4.1656208038330080,56.2107505798339840,55,101,99,78,81,15625,0,0,0,0,2147123474,2147773019,2147568466,2147568338,61,2,13,28461
1369492328,5809,984.7700195312500000,35.9911804199218750,571.1690063476562000,4.1392288208007810,56.2392005920410160,55,98,99,78,81,15626,0,0,0,0,2147125056,2147772342,2147574217,2147571373,310,2,13,21044
1369495928,5809,980.3200073242188000,36.7837791442871100,572.6140747070312000,4.0942959785461430,56.1337814331054700,54,99,99,78,82,15628,0,0,0,0,2147125330,2147770834,2147570889,2147567268,117,2,13,25452
1369499528,5810,981.5399780273438000,36.8277893066406250,572.9229736328125000,4.0846900939941410,56.1242790222168000,55,96,99,78,80,15627,0,0,0,0,2147124233,2147768822,2147571483,2147565302,3184,2,13,6067
1369503128,5811,979.8599853515625000,38.2440681457519500,572.7067260742188000,4.0914192199707030,55.9063911437988300,54,99,99,79,82,15623,0,0,0,0,2147122102,2147769846,2147570934,2147565613,54,2,13,27956
1369506728,5809,978.3599853515625000,37.9648818969726560,573.5286254882812000,4.0658550262451170,55.9630889892578100,55,97,99,79,81,15627,0,0,0,0,2147121088,2147776073,2147571776,2147570057,519,2,13,56990
1369510328,5808,984.2700195312500000,38.7060089111328100,573.4705810546875000,4.0676569938659670,55.8493499755859400,56,97,99,78,81,15615,0,0,0,0,2147124708,2147773686,2147573888,2147571163,471,3,13,11714
1369513928,5809,988.5100097656250000,38.5226211547851560,572.8873291015625000,4.0858001708984375,55.8656311035156250,55,98,98,78,80,15621,0,0,0,0,2147121810,2147768438,2147573677,2147569261,373,2,13,42929
1369517528,5812,983.2299804687500000,37.4803504943847660,572.9141845703125000,4.0849652290344240,56.0250892639160160,55,104,101,79,80,15625,0,0,0,0,2147120777,2147773321,2147573824,2147570093,101,3,13,2330
1369521128,5809,991.5000000000000000,36.0496711730957000,572.8400268554688000,4.0872712135314940,56.2455406188964840,54,99,100,76,81,15621,0,0,0,0,2147123081,2147771620,2147568475,2147567286,184,2,13,58652
1369524728,5808,992.2100219726562000,38.8674011230468750,571.8275146484375000,4.1187567710876465,55.8077011108398440,54,96,100,77,82,15622,0,0,0,0,2147127049,2147771492,2147567798,2147565412,3527,2,13,6931
1369528328,5811,992.1699829101562000,38.4216499328613300,572.5438232421875000,4.0964832305908200,55.8801002502441400,54,97,99,78,82,15620,0,0,0,0,2147121773,2147762715,2147574445,2147569709,3443,2,13,35887
1369531928,5807,983.7500000000000000,39.6239509582519500,572.6564941406250000,4.0929789543151855,55.6978492736816400,55,98,99,78,82,15618,0,0,0,0,2147124498,2147764443,2147575360,2147568265,3444,2,13,4663
1369535528,5810,980.7800292968750000,39.7829513549804700,572.8654174804688000,4.0864810943603520,55.6751899719238300,55,98,101,78,81,15622,0,0,0,0,2147120704,2147771382,2147571638,2147568009,211,2,13,62788
1369539128,5810,984.6799926757812000,39.1266517639160160,573.0554809570312000,4.0805702209472660,55.7801895141601560,54,99,99,77,82,15622,0,0,0,0,2147122148,2147769179,2147567040,2147568301,185,2,13,8684
1369542728,5809,987.9099731445312000,38.6814117431640600,573.3479003906250000,4.0714759826660160,55.8468284606933600,55,97,100,77,81,15619,0,0,0,0,2147125476,2147769636,2147575030,2147568356,101,2,13,38734
1369546328,5808,983.0599975585938000,39.4709091186523440,573.3059082031250000,4.0727810859680180,55.7321281433105500,54,98,101,78,82,15623,0,0,0,0,2147122889,2147770971,2147571364,2147567405,257,2,13,26437
1369549928,5812,982.2199707031250000,39.7223205566406250,574.1392211914062000,4.0468621253967285,55.6995506286621100,54,97,101,77,81,15622,0,0,0,0,2147122285,2147772790,2147571721,2147567771,3234,2,13,57504
1369553528,5809,998.2999877929688000,41.3228988647460940,573.7680053710938000,4.0584092140197750,55.4582901000976560,55,98,100,78,82,15620,0,0,0,0,2147123611,2147764818,2147569490,2147569206,175,2,13,2435
1369557128,5810,997.3499755859375000,41.0458984375000000,572.9976806640625000,4.0823669433593750,55.4905090332031250,54,99,98,78,81,15621,0,0,0,0,2147122870,2147774619,2147569270,2147566582,3432,2,13,2922
1369560728,5809,996.2299804687500000,37.7462615966796900,572.1259765625000000,4.1094741821289060,55.9792785644531250,54,98,100,77,81,15622,0,0,0,0,2147124315,2147776402,2147573787,2147568795,278,2,13,34930
1369564328,5812,994.3599853515625000,38.2143783569335940,571.9027709960938000,4.1164131164550780,55.9072303771972660,54,98,101,77,82,15621,0,0,0,0,2147124827,2147772617,2147570112,2147568777,304,3,13,59847
1369567928,5809,1000.8900146484375000,37.2407798767089840,571.6926879882812000,4.1229481697082520,56.0499114990234400,53,98,101,77,80,15621,0,0,0,0,2147120256,2147776009,2147568941,2147567661,3494,2,13,52863
1369571528,5809,996.9699707031250000,36.8813705444335940,571.8314208984375000,4.1186351776123050,56.1095008850097660,55,98,101,78,81,15619,0,0,0,0,2147122422,2147774820,2147569920,2147566336,433,2,13,56125
1369575128,5810,1003.5200195312500000,37.1363182067871100,571.0014038085938000,4.1444377899169920,56.0590896606445300,55,98,99,76,82,15612,0,0,0,0,2147119954,2147776182,2147570084,2147567222,298,2,13,16510
1369578728,5811,996.0599975585938000,38.4644889831543000,572.1425170898438000,4.1089611053466800,55.8706893920898440,54,98,98,79,82,15621,0,0,0,0,2147122395,2147772982,2147572937,2147571721,697,2,13,64339
1369582328,5810,991.7800292968750000,35.1828117370605500,572.6373901367188000,4.0935730934143070,56.3824501037597660,55,99,100,78,81,15612,0,0,0,0,2147122084,2147769782,2147573312,2147566884,2699,2,13,34411
1369585928,5813,989.8400268554688000,36.7033309936523440,573.3231811523438000,4.0722451210021970,56.1473884582519500,55,99,99,78,81,15618,0,0,0,0,2147123273,2147771611,2147568685,2147569563,3410,2,13,47284
1369589528,5809,981.8800048828125000,39.6690292358398440,574.0775146484375000,4.0487790107727050,55.7098197937011700,55,99,101,78,81,15617,0,0,0,0,2147123355,2147771062,2147571620,2147568164,313,2,13,25040
1369593128,5810,987.3400268554688000,37.5489311218261700,574.4318847656250000,4.0377540588378910,56.0334892272949200,54,101,100,77,81,15619,0,0,0,0,2147121737,2147772525,2147572461,2147569782,302,2,13,58605
1369596728,5810,985.5700073242188000,38.5445289611816400,574.4113159179688000,4.0383949279785160,55.8836517333984400,55,98,99,79,83,15587,0,0,0,0,2147122194,2147769700,2147573385,2147568758,116,2,13,35358
1369598456,5811,989.5800170898438000,40.1421089172363300,574.4005737304688000,4.0387291908264160,55.6418685913085940,55,98,98,77,81,15614,0,0,0,0,2147121334,2147771474,2147572388,2147566125,54,2,13,62701
